Eau Claire, WI

9:45 AM CST on December 08, 2016 (GMT -0600)
Chippewa Valley Regional

Weather History for KEAU - April, 2014

Change the Weather History Date:

Friday, April 4, 2014

  Actual Average Record
Temperature  
Mean Temperature 31 °F 40 °F  
Max Temperature 37 °F 51 °F 80 °F (1921)
Min Temperature 25 °F 29 °F 6 °F (1995)
Degree Days  
Heating Degree Days 34 25  
Month to date heating degree days 134 102  
Since 1 July heating degree days 8310 7166  
Cooling Degree Days 0 0  
Month to date cooling degree days 0 0  
Year to date cooling degree days 0 0  
Moisture  
Dew Point 29 °F    
Average Humidity 88    
Maximum Humidity 100    
Minimum Humidity 75    
Precipitation  
Precipitation 0.60 in 0.07 in 0.66 in (1999)
Month to date precipitation 1.55 0.30  
Year to date precipitation 5.48 3.73  
Snow  
Snow 7.40 in 0.10 in 7.50 in (1945)
Month to date snowfall 7.6 0.5  
Since 1 July snowfall 73.3 45.4  
Snow Depth 3.00 in    
Sea Level Pressure  
Sea Level Pressure 29.72 in    
Wind  
Wind Speed 9 mph (NNW)    
Max Wind Speed 15 mph    
Max Gust Speed 25 mph    
Visibility 3 miles    
Events Fog , Rain , Snow    
T = Trace of Precipitation, MM = Missing Value Source: NWS Daily Summary

Daily Weather History Graph

Daily Weather History Graph

Search for Another Location

Airport or City:

Trip Planner

Search our weather history database for the weather conditions in past years. The results will help you decide how hot, cold, wet, or windy it might be!

Date:

Astronomy

Apr. 04, 2014 Rise Set
Actual Time 6:41 AM CDT 7:37 PM CDT
Civil Twilight 6:11 AM CDT 8:07 PM CDT
Nautical Twilight 5:35 AM CDT 8:42 PM CDT
Astronomical Twilight 4:58 AM CDT 9:20 PM CDT
Moon 9:49 AM CDT (4/4) 12:05 AM CDT (4/4)
Length of Visible Light 13h 55m
Length of Day
12h 56m
Waxing Crescent, 25% of the Moon is Illuminated
Apr 4
Waxing Crescent
Apr 7
First Quarter
Apr 15
Full
Apr 22
Last Quarter
Apr 29
New

Hourly Weather History & Observations

Time (CDT) Temp. Windchill Dew Point Humidity Pressure Visibility Wind Dir Wind Speed Gust Speed Precip Events Conditions
12:08 AM 33.1 °F 27.7 °F 30.9 °F 92% 29.74 in 3.0 mi NNE 5.8 mph - 0.02 in Rain Light Freezing Rain
12:16 AM 32.0 °F 26.4 °F 30.9 °F 96% 29.73 in 5.0 mi NNE 5.8 mph - 0.03 in Rain Rain
12:30 AM 32.0 °F 25.6 °F 30.9 °F 96% 29.71 in 2.5 mi NNE 6.9 mph - 0.05 in   Overcast
12:41 AM 32.0 °F 24.8 °F 30.9 °F 96% 29.70 in 1.2 mi NE 8.1 mph - 0.06 in Snow Light Snow
12:52 AM 32.0 °F 23.6 °F 30.2 °F 93% 29.69 in 1.2 mi NE 10.4 mph - 0.07 in Snow Light Snow
12:56 AM 32.0 °F 24.2 °F 30.9 °F 96% 29.73 in 1.5 mi NE 9.2 mph - 0.07 in Snow Light Snow
1:18 AM 32.0 °F 24.8 °F 30.9 °F 96% 29.68 in 1.5 mi NE 8.1 mph - 0.03 in Snow Light Snow
1:24 AM 32.0 °F 24.2 °F 30.9 °F 96% 29.68 in 3.0 mi NE 9.2 mph - 0.03 in Snow Light Snow
1:56 AM 32.0 °F - 30.9 °F 96% 29.69 in - North - - 0.03 in   Unknown
2:56 AM - - - N/A% 29.63 in - North - - N/A   Unknown
3:56 AM - - - N/A% 29.63 in - North - - N/A   Unknown
4:56 AM - - - N/A% 29.61 in - North - - N/A   Unknown
5:56 AM - - - N/A% 29.60 in 1.0 mi North - - N/A   Mist
6:21 AM - - - N/A% 29.59 in 1.0 mi North 17.3 mph - N/A   Unknown
6:45 AM - - - N/A% 29.61 in 0.8 mi North 17.3 mph - N/A   Unknown
6:56 AM 28.9 °F 16.9 °F 28.0 °F 96% 29.64 in 0.2 mi North 17.3 mph - N/A Fog , Snow Snow
7:28 AM 28.9 °F 21.1 °F 28.0 °F 96% 29.62 in 0.5 mi NNW 8.1 mph - 0.16 in Fog , Snow Snow
7:56 AM 28.9 °F 19.8 °F 28.0 °F 96% 29.65 in 1.5 mi North 10.4 mph - 0.19 in Snow Snow
8:03 AM 28.9 °F 20.4 °F 28.0 °F 96% 29.61 in 1.5 mi NNW 9.2 mph - 0.00 in Snow Snow
8:47 AM 28.9 °F 20.4 °F 27.0 °F 92% 29.61 in 2.0 mi NNW 9.2 mph - 0.06 in Snow Snow
8:56 AM 28.9 °F 19.8 °F 27.0 °F 92% 29.65 in 2.5 mi NNW 10.4 mph 18.4 mph 0.06 in Snow Snow
9:13 AM 30.0 °F 20.5 °F 27.0 °F 88% 29.62 in 1.2 mi NNW 11.5 mph - 0.01 in Snow Light Snow
9:32 AM 30.0 °F 20.0 °F 28.0 °F 92% 29.62 in 3.0 mi NNW 12.7 mph - 0.01 in Snow Light Snow
9:43 AM 30.0 °F 21.1 °F 28.0 °F 92% 29.62 in 6.0 mi NNW 10.4 mph - 0.01 in   Overcast
9:56 AM 30.0 °F 21.1 °F 28.0 °F 92% 29.65 in 5.0 mi NNW 10.4 mph - 0.01 in   Overcast
10:42 AM 30.9 °F 20.7 °F 28.9 °F 92% 29.64 in 1.8 mi NNW 13.8 mph 20.7 mph 0.00 in Snow Light Snow
10:54 AM 30.2 °F 20.2 °F 28.4 °F 93% 29.65 in 1.5 mi NNW 12.7 mph 20.7 mph 0.00 in Snow Light Snow
10:56 AM 30.9 °F 21.2 °F 28.9 °F 92% 29.68 in 1.5 mi NNW 12.7 mph 20.7 mph 0.00 in Snow Light Snow
11:12 AM 30.9 °F 21.7 °F 28.9 °F 92% 29.66 in 0.8 mi NNW 11.5 mph - 0.01 in Snow Light Snow
11:20 AM 30.9 °F 20.7 °F 28.9 °F 92% 29.67 in 0.5 mi NNW 13.8 mph 21.9 mph 0.01 in Fog , Snow Snow
11:38 AM 30.9 °F 21.2 °F 28.9 °F 92% 29.68 in 0.2 mi NNW 12.7 mph 21.9 mph 0.02 in Fog , Snow Heavy Snow
11:47 AM 30.9 °F 20.7 °F 28.9 °F 92% 29.69 in 0.5 mi NNW 13.8 mph 21.9 mph 0.02 in Fog , Snow Snow
11:56 AM 30.9 °F 21.2 °F 28.9 °F 92% 29.73 in 0.5 mi NNW 12.7 mph 20.7 mph 0.03 in Fog , Snow Snow
12:25 PM 30.9 °F 19.8 °F 28.9 °F 92% 29.71 in 0.2 mi NNW 16.1 mph 23.0 mph 0.01 in Fog , Snow Heavy Snow
12:54 PM 30.2 °F 19.3 °F 28.4 °F 93% 29.72 in 0.5 mi NNW 15.0 mph 24.2 mph 0.03 in Fog , Snow Snow
12:56 PM 30.9 °F 20.7 °F 28.9 °F 92% 29.75 in 0.5 mi NNW 13.8 mph 24.2 mph 0.03 in Fog , Snow Snow
1:10 PM 30.9 °F 19.8 °F 28.0 °F 89% 29.73 in 1.0 mi NNW 16.1 mph 23.0 mph 0.00 in Snow Light Snow
1:30 PM 30.9 °F 20.2 °F 28.9 °F 92% 29.74 in 0.5 mi NNW 15.0 mph 21.9 mph 0.01 in Fog , Snow Snow
1:56 PM 32.0 °F 22.5 °F 28.9 °F 88% 29.78 in 0.8 mi NNW 12.7 mph 25.3 mph 0.01 in Snow Light Snow
2:08 PM 32.0 °F 22.1 °F 28.9 °F 88% 29.75 in 1.0 mi NNW 13.8 mph 24.2 mph 0.01 in Snow Light Snow
2:15 PM 32.0 °F 22.5 °F 28.9 °F 88% 29.76 in 1.2 mi NNW 12.7 mph - 0.01 in Snow Light Snow
2:44 PM 33.1 °F 23.4 °F 30.0 °F 89% 29.77 in 2.0 mi NNW 13.8 mph 21.9 mph 0.01 in Snow Light Snow
2:47 PM 34.0 °F 24.6 °F 28.9 °F 82% 29.77 in 3.0 mi NNW 13.8 mph 21.9 mph 0.01 in Snow Light Snow
2:56 PM 34.0 °F 22.4 °F 28.9 °F 82% 29.77 in 8.0 mi NNW 20.7 mph 29.9 mph 0.01 in   Overcast
3:56 PM 35.1 °F 25.5 °F 28.0 °F 76% 29.81 in 10.0 mi NNW 15.0 mph 23.0 mph N/A   Overcast
4:56 PM 36.0 °F 27.1 °F 28.9 °F 76% 29.83 in 10.0 mi NW 13.8 mph - N/A   Overcast
5:56 PM 36.0 °F 29.0 °F 28.0 °F 73% 29.86 in 10.0 mi NW 9.2 mph - N/A   Overcast
6:56 PM 36.0 °F 28.5 °F 28.0 °F 73% 29.93 in 10.0 mi NNW 10.4 mph - N/A   Mostly Cloudy
7:56 PM 34.0 °F 28.8 °F 27.0 °F 75% 29.96 in 10.0 mi NW 5.8 mph - N/A   Partly Cloudy
8:56 PM 32.0 °F 27.5 °F 28.0 °F 85% 29.99 in 10.0 mi WNW 4.6 mph - N/A   Clear
9:56 PM 28.0 °F - 26.1 °F 92% 30.01 in 10.0 mi Calm Calm - N/A   Clear
10:56 PM 26.1 °F 21.9 °F 23.0 °F 88% 30.03 in 10.0 mi SW 3.5 mph - N/A   Clear
11:56 PM 26.1 °F 21.9 °F 21.9 °F 84% 30.04 in 10.0 mi SW 3.5 mph - N/A   Clear